KD7TTL Weather Reports


time (UTC)temp
C
wind
direction
speed
KPH
gust
KPH
rain 1hr
cm
rain 24hr
cm
rain mn
cm
humidity
%
barometer
mb
20260507164002 10 44 1.6 4.8 0.00 0.00 0.00 88 1021.8
20260507163504 10 41 1.6 6.4 0.00 0.00 0.00 88 1021.8
20260507163007 10 24 1.6 6.4 0.00 0.00 0.00 89 1021.9
20260507162503 10 51 1.6 6.4 0.00 0.00 0.00 88 1021.8
20260507162003 10 55 3.2 6.4 0.00 0.00 0.00 88 1021.8
20260507161508 10 49 1.6 6.4 0.00 0.00 0.00 89 1021.9
20260507161003 10 34 0.0 3.2 0.00 0.00 0.00 89 1021.9
20260507160505 10 93 0.0 3.2 0.00 0.00 0.00 89 1022.0
20260507160007 10 51 0.0 6.4 0.00 0.00 0.00 90 1022.0
20260507155503 10 51 0.0 6.4 0.00 0.00 0.00 90 1022.0
20260507155014 10 34 1.6 4.8 0.00 0.00 0.00 90 1022.0
20260507154508 10 9 0.0 4.8 0.00 0.00 0.00 90 1022.1
20260507154004 10 34 1.6 4.8 0.00 0.00 0.00 90 1022.1
20260507153502 10 59 1.6 4.8 0.00 0.00 0.00 90 1022.0
20260507153007 10 68 1.6 4.8 0.00 0.00 0.00 90 1022.0
20260507152502 10 9 0.0 4.8 0.00 0.00 0.00 90 1022.0
20260507152003 9 59 1.6 4.8 0.00 0.00 0.00 91 1022.0
20260507151507 9 93 0.0 3.2 0.00 0.00 0.00 91 1022.0
20260507151003 9 93 0.0 1.6 0.00 0.00 0.00 91 1021.9
20260507150503 9 93 0.0 3.2 0.00 0.00 0.00 91 1022.0
20260507150009 9 51 0.0 3.2 0.00 0.00 0.00 91 1022.0
20260507145502 9 9 0.0 3.2 0.00 0.00 0.00 91 1022.0
20260507145003 9 72 0.0 3.2 0.00 0.00 0.00 91 1022.0
20260507144508 9 51 0.0 4.8 0.00 0.00 0.00 91 1022.0
20260507144003 9 93 1.6 4.8 0.00 0.00 0.00 91 1021.9
20260507143502 9 64 1.6 3.2 0.00 0.00 0.00 91 1021.9
20260507143018 9 80 0.0 3.2 0.00 0.00 0.00 91 1021.9
20260507142504 9 93 0.0 3.2 0.00 0.00 0.00 91 1021.8
20260507142003 9 51 0.0 3.2 0.00 0.00 0.00 91 1021.8
20260507141516 9 41 0.0 3.2 0.00 0.00 0.00 91 1021.8
20260507141002 9 9 0.0 1.6 0.00 0.00 0.00 91 1021.7
20260507140502 9 93 0.0 1.6 0.00 0.00 0.00 91 1021.6
20260507140007 9 93 0.0 3.2 0.00 0.00 0.00 91 1021.7
20260507135502 9 178 0.0 3.2 0.00 0.00 0.00 91 1021.7
20260507135005 9 9 0.0 3.2 0.00 0.00 0.00 91 1021.7
20260507134507 9 9 0.0 3.2 0.00 0.00 0.00 91 1021.7
20260507134003 9 9 0.0 6.4 0.00 0.00 0.00 91 1021.7
20260507133503 9 47 1.6 6.4 0.00 0.00 0.00 90 1021.7
20260507133007 10 41 0.0 4.8 0.00 0.00 0.00 90 1021.7
20260507132502 10 93 0.0 4.8 0.00 0.00 0.00 90 1021.7
20260507132006 10 282 0.0 3.2 0.00 0.00 0.00 90 1021.7
20260507131516 10 9 1.6 4.8 0.00 0.00 0.00 90 1021.7
20260507131003 10 9 1.6 4.8 0.00 0.00 0.00 90 1021.7
20260507130502 10 309 3.2 4.8 0.00 0.00 0.00 90 1021.7
20260507130006 10 51 0.0 3.2 0.00 0.00 0.00 90 1021.7
20260507125504 10 319 0.0 8.0 0.00 0.00 0.00 91 1021.7
20260507125002 10 59 1.6 8.0 0.00 0.00 0.00 91 1021.7
20260507124513 10 51 1.6 4.8 0.00 0.00 0.00 91 1021.7
20260507124004 10 265 1.6 4.8 0.00 0.00 0.00 92 1021.8
20260507123503 10 9 0.0 3.2 0.00 0.00 0.00 92 1021.8
20260507123008 10 51 0.0 3.2 0.00 0.00 0.00 91 1021.8
20260507122509 10 51 0.0 3.2 0.00 0.00 0.00 91 1021.8
20260507122010 10 34 0.0 3.2 0.00 0.00 0.00 91 1021.8
20260507121527 10 44 1.6 3.2 0.00 0.00 0.00 91 1021.9
20260507121012 10 59 1.6 3.2 0.00 0.00 0.00 91 1021.9
20260507120514 10 93 0.0 1.6 0.00 0.00 0.00 91 1022.0
20260507120029 10 9 0.0 1.6 0.00 0.00 0.00 91 1021.9
20260507115509 10 178 0.0 1.6 0.00 0.00 0.00 91 1022.0
20260507115011 10 76 0.0 3.2 0.00 0.00 0.00 91 1021.9
20260507114550 10 51 0.0 3.2 0.00 0.00 0.00 91 1022.0
20260507114014 10 68 0.0 3.2 0.00 0.00 0.00 91 1022.0
20260507113510 10 93 0.0 3.2 0.00 0.00 0.00 91 1022.1
20260507113057 10 68 0.0 1.6 0.00 0.00 0.00 90 1022.1
20260507112510 10 76 0.0 1.6 0.00 0.00 0.00 91 1022.1
20260507112013 10 68 0.0 1.6 0.00 0.00 0.00 91 1022.1
20260507111538 10 34 0.0 1.6 0.00 0.00 0.00 90 1022.2
20260507111010 10 68 0.0 1.6 0.00 0.00 0.00 90 1022.2
20260507110510 10 51 0.0 1.6 0.00 0.00 0.00 90 1022.3
20260507110028 10 51 0.0 3.2 0.00 0.00 0.00 90 1022.3
20260507105511 10 325 0.0 4.8 0.00 0.00 0.00 90 1022.3
20260507105011 10 9 0.0 4.8 0.00 0.00 0.00 90 1022.3
20260507104538 10 9 0.0 3.2 0.00 0.00 0.00 90 1022.3
20260507104010 10 34 0.0 1.6 0.00 0.00 0.00 90 1022.3
20260507103507 10 51 0.0 1.6 0.00 0.00 0.00 90 1022.3
20260507103031 10 68 0.0 1.6 0.00 0.00 0.00 90 1022.3
20260507102510 10 68 0.0 1.6 0.00 0.00 0.00 90 1022.2
20260507102015 10 68 0.0 1.6 0.00 0.00 0.00 90 1022.2
20260507101529 10 9 0.0 1.6 0.00 0.00 0.00 90 1022.3
20260507101010 10 93 0.0 1.6 0.00 0.00 0.00 90 1022.3
20260507100510 10 41 0.0 1.6 0.00 0.00 0.00 90 1022.3
20260507100030 10 137 0.0 3.2 0.00 0.00 0.00 90 1022.3
20260507095510 10 93 0.0 3.2 0.00 0.00 0.00 90 1022.3
20260507095009 10 44 1.6 3.2 0.00 0.00 0.00 90 1022.4
20260507094533 10 22 0.0 1.6 0.00 0.00 0.00 90 1022.4
20260507094009 10 51 0.0 1.6 0.00 0.00 0.00 90 1022.4
20260507093512 10 9 0.0 1.6 0.00 0.00 0.00 90 1022.3
20260507093034 10 51 0.0 3.2 0.00 0.00 0.00 90 1022.4
20260507092513 10 93 0.0 3.2 0.00 0.00 0.00 90 1022.4
20260507092014 10 24 1.6 6.4 0.00 0.00 0.00 90 1022.4
20260507091531 10 162 0.0 6.4 0.00 0.00 0.00 90 1022.4
20260507091003 10 153 1.6 6.4 0.00 0.00 0.00 90 1022.4
20260507090502 10 162 0.0 3.2 0.00 0.00 0.00 90 1022.3
20260507090006 10 9 0.0 3.2 0.00 0.00 0.00 90 1022.3
20260507085503 10 34 0.0 4.8 0.00 0.00 0.00 90 1022.3
20260507085003 10 34 1.6 4.8 0.00 0.00 0.00 90 1022.3
20260507084508 10 34 0.0 4.8 0.00 0.00 0.00 90 1022.4
20260507084002 10 36 1.6 4.8 0.00 0.00 0.00 90 1022.3
20260507083503 10 34 0.0 4.8 0.00 0.00 0.00 90 1022.3
20260507083008 11 265 0.0 3.2 0.00 0.00 0.00 90 1022.2
20260507082502 11 51 0.0 3.2 0.00 0.00 0.00 90 1022.1
20260507082002 11 309 0.0 3.2 0.00 0.00 0.00 90 1022.1
20260507081508 11 93 0.0 8.0 0.00 0.00 0.00 90 1022.1
20260507081003 11 22 1.6 8.0 0.00 0.00 0.00 90 1022.2
20260507080506 11 57 1.6 4.8 0.00 0.00 0.00 90 1022.3
20260507080005 11 38 1.6 4.8 0.00 0.00 0.00 90 1022.2
20260507075503 11 26 0.0 4.8 0.00 0.00 0.00 90 1022.3
20260507075003 11 93 0.0 4.8 0.00 0.00 0.00 90 1022.2
20260507074508 11 41 1.6 6.4 0.00 0.00 0.00 89 1022.2
20260507074005 11 51 0.0 6.4 0.00 0.00 0.00 89 1022.2
20260507073505 11 9 1.6 8.0 0.00 0.00 0.00 89 1022.2
20260507073010 11 309 3.2 8.0 0.00 0.00 0.00 89 1022.2
20260507072504 11 235 0.0 6.4 0.00 0.00 0.00 88 1022.2
20260507072003 11 105 1.6 6.4 0.00 0.00 0.00 88 1022.1
20260507071506 11 76 1.6 6.4 0.00 0.00 0.00 88 1022.0
20260507071003 11 16 3.2 6.4 0.00 0.00 0.00 88 1022.0
20260507070504 11 93 0.0 3.2 0.00 0.00 0.00 89 1022.1
20260507070013 11 93 0.0 3.2 0.00 0.00 0.00 89 1022.0
20260507065502 11 34 0.0 1.6 0.00 0.00 0.00 89 1021.9
20260507065002 11 93 0.0 1.6 0.00 0.00 0.00 88 1021.9
20260507064509 11 51 0.0 1.6 0.00 0.00 0.00 88 1021.8
20260507064004 11 93 0.0 1.6 0.00 0.00 0.00 88 1021.8
20260507063507 11 51 0.0 1.6 0.00 0.00 0.00 88 1021.8
20260507063008 11 51 0.0 1.6 0.00 0.00 0.00 88 1021.9
20260507062503 11 93 0.0 1.6 0.00 0.00 0.00 88 1021.9
20260507062004 11 93 0.0 1.6 0.00 0.00 0.00 87 1021.9
20260507061508 11 93 0.0 1.6 0.00 0.00 0.00 87 1021.9
20260507061004 11 93 0.0 1.6 0.00 0.00 0.00 87 1021.9
20260507060503 11 93 0.0 1.6 0.00 0.00 0.00 87 1021.8
20260507060008 11 51 0.0 1.6 0.00 0.00 0.00 87 1021.8
20260507055503 11 93 0.0 1.6 0.00 0.00 0.00 87 1021.8
20260507055006 11 51 0.0 0.0 0.00 0.00 0.00 87 1021.8
20260507054507 11 9 0.0 0.0 0.00 0.00 0.00 87 1021.8
20260507054003 11 51 0.0 0.0 0.00 0.00 0.00 87 1021.9
20260507053503 11 93 0.0 1.6 0.00 0.00 0.00 86 1021.9
20260507053007 11 51 0.0 1.6 0.00 0.00 0.00 87 1021.9
20260507052504 11 51 0.0 1.6 0.00 0.00 0.00 87 1022.0
20260507052004 11 51 0.0 0.0 0.00 0.00 0.00 86 1022.0
20260507051506 11 51 0.0 1.6 0.00 0.00 0.00 86 1022.0
20260507051009 11 51 0.0 1.6 0.00 0.00 0.00 86 1022.0
20260507050504 12 93 0.0 1.6 0.00 0.00 0.00 87 1022.0
20260507050012 12 68 0.0 1.6 0.00 0.00 0.00 86 1022.0
20260507045504 12 51 0.0 1.6 0.00 0.00 0.00 86 1022.0
20260507045004 12 51 0.0 1.6 0.00 0.00 0.00 86 1022.0
20260507044508 12 68 0.0 1.6 0.00 0.00 0.00 86 1022.1
20260507044010 12 93 0.0 1.6 0.00 0.00 0.00 86 1022.1
20260507043511 12 51 0.0 1.6 0.00 0.00 0.00 85 1022.1
20260507043029 12 93 0.0 1.6 0.00 0.00 0.00 85 1022.2
20260507042512 12 9 0.0 1.6 0.00 0.00 0.00 85 1022.2
20260507042014 12 51 0.0 1.6 0.00 0.00 0.00 85 1022.2
20260507041530 12 51 0.0 3.2 0.00 0.00 0.00 85 1022.2
20260507041010 12 68 0.0 3.2 0.00 0.00 0.00 84 1022.2
20260507040510 12 51 0.0 1.6 0.00 0.00 0.00 84 1022.2
20260507040028 12 68 0.0 1.6 0.00 0.00 0.00 84 1022.1
20260507035512 12 51 0.0 0.0 0.00 0.00 0.00 84 1022.1
20260507035010 12 51 0.0 0.0 0.00 0.00 0.00 83 1022.0
20260507034535 12 51 0.0 0.0 0.00 0.00 0.00 83 1021.9
20260507034012 12 51 0.0 0.0 0.00 0.00 0.00 83 1021.8
20260507033511 12 51 0.0 0.0 0.00 0.00 0.00 83 1021.8
20260507033028 12 9 0.0 1.6 0.00 0.00 0.00 83 1021.9
20260507032512 12 9 0.0 1.6 0.00 0.00 0.00 83 1021.8
20260507032011 12 93 0.0 1.6 0.00 0.00 0.00 83 1021.7
20260507031529 12 120 0.0 1.6 0.00 0.00 0.00 83 1021.7
20260507031012 12 51 0.0 3.2 0.00 0.00 0.00 83 1021.7
20260507030517 12 76 0.0 3.2 0.00 0.00 0.00 82 1021.7
20260507030027 12 93 0.0 3.2 0.00 0.00 0.00 81 1021.6
20260507025511 12 59 0.0 4.8 0.00 0.00 0.00 81 1021.7
20260507025011 12 68 0.0 4.8 0.00 0.00 0.00 81 1021.8
20260507024528 12 221 0.0 6.4 0.00 0.00 0.00 80 1021.7
20260507024009 12 51 1.6 6.4 0.00 0.00 0.00 81 1021.6
20260507023513 13 76 0.0 3.2 0.00 0.00 0.00 80 1021.7
20260507023030 13 137 0.0 3.2 0.00 0.00 0.00 81 1021.6
20260507022510 13 137 0.0 3.2 0.00 0.00 0.00 80 1021.5
20260507022010 13 137 0.0 3.2 0.00 0.00 0.00 80 1021.6
20260507021530 13 309 0.0 3.2 0.00 0.00 0.00 80 1021.6
20260507021011 13 137 1.6 6.4 0.00 0.00 0.00 79 1021.6
20260507020513 13 137 1.6 6.4 0.00 0.00 0.00 79 1021.6
20260507020044 13 120 0.0 4.8 0.00 0.00 0.00 79 1021.7
20260507015510 13 61 0.0 4.8 0.00 0.00 0.00 78 1021.5
20260507015012 13 146 0.0 3.2 0.00 0.00 0.00 79 1021.5
20260507014526 13 137 1.6 4.8 0.00 0.00 0.00 78 1021.5
20260507014010 13 265 0.0 4.8 0.00 0.00 0.00 78 1021.5
20260507013509 13 141 1.6 4.8 0.00 0.00 0.00 78 1021.6
20260507013029 13 153 0.0 3.2 0.00 0.00 0.00 79 1021.4
20260507012509 13 178 0.0 4.8 0.00 0.00 0.00 79 1021.5
20260507012009 13 146 0.0 6.4 0.00 0.00 0.00 78 1021.5
20260507011541 13 146 1.6 6.4 0.00 0.00 0.00 78 1021.5
20260507011010 13 178 1.6 12.9 0.00 0.00 0.00 76 1021.5
20260507010510 13 51 3.2 12.9 0.00 0.00 0.00 77 1021.6
20260507010034 13 146 1.6 9.7 0.00 0.00 0.00 77 1021.6
20260507005511 13 178 3.2 9.7 0.00 0.00 0.00 74 1021.6
20260507005010 13 153 1.6 12.9 0.00 0.00 0.00 77 1021.6
20260507004531 13 194 3.2 12.9 0.00 0.00 0.00 75 1021.6
20260507004010 13 178 4.8 17.7 0.00 0.00 0.00 75 1021.6
20260507003511 13 147 11.3 17.7 0.00 0.00 0.00 74 1021.6
20260507003026 13 141 3.2 12.9 0.00 0.00 0.00 75 1021.6
20260507002509 13 156 3.2 12.9 0.00 0.00 0.00 75 1021.7
20260507002015 13 144 1.6 14.5 0.00 0.00 0.00 77 1021.7
20260507001600 13 309 3.2 14.5 0.00 0.00 0.00 77 1021.7
20260507001009 13 149 1.6 12.9 0.00 0.00 0.00 77 1021.7
20260507000511 13 178 6.4 12.9 0.00 0.00 0.00 76 1021.8
20260507000032 13 130 4.8 12.9 0.00 0.00 0.00 76 1021.7
20260506235511 13 120 3.2 12.9 0.00 0.00 0.00 76 1021.7
20260506235014 13 156 3.2 12.9 0.00 0.00 0.00 77 1021.7
20260506234527 13 214 3.2 17.7 0.00 0.00 0.00 77 1021.7
20260506234003 13 137 8.0 17.7 0.00 0.00 0.00 76 1021.6
20260506233504 14 160 4.8 16.1 0.00 0.00 0.00 77 1021.6
20260506233009 14 142 3.2 12.9 0.00 0.00 0.00 77 1021.6
20260506232503 14 200 1.6 12.9 0.00 0.00 0.00 78 1021.5
20260506232003 14 167 4.8 11.3 0.00 0.00 0.00 76 1021.6
20260506231507 14 178 1.6 11.3 0.00 0.00 0.00 78 1021.6
20260506231003 14 171 3.2 14.5 0.00 0.00 0.00 78 1021.6
20260506230507 14 47 6.4 14.5 0.00 0.00 0.00 76 1021.7
20260506230009 14 160 3.2 17.7 0.00 0.00 0.00 76 1021.6
20260506225503 15 190 6.4 17.7 0.00 0.00 0.00 75 1021.6
20260506225003 15 150 6.4 17.7 0.00 0.00 0.00 75 1021.7
20260506224509 14 153 3.2 11.3 0.00 0.00 0.00 77 1021.6
20260506224003 14 212 3.2 11.3 0.00 0.00 0.00 76 1021.7
20260506223503 14 80 1.6 12.9 0.00 0.00 0.00 78 1021.7
20260506223010 14 137 4.8 12.9 0.00 0.00 0.00 76 1021.7
20260506222510 14 149 3.2 14.5 0.00 0.00 0.00 78 1021.8
20260506222004 15 165 3.2 14.5 0.00 0.00 0.00 78 1021.9
20260506221512 15 196 1.6 11.3 0.00 0.00 0.00 78 1021.9
20260506221003 15 108 3.2 12.9 0.00 0.00 0.00 77 1022.0
20260506220504 15 51 1.6 16.1 0.00 0.00 0.00 78 1022.0
20260506220012 15 120 4.8 16.1 0.00 0.00 0.00 77 1022.1
20260506215504 15 126 4.8 16.1 0.00 0.00 0.00 75 1022.0
20260506215006 15 68 1.6 12.9 0.00 0.00 0.00 78 1021.9
20260506214514 15 265 3.2 6.4 0.00 0.00 0.00 80 1021.8
20260506214004 14 162 1.6 9.7 0.00 0.00 0.00 79 1021.8
20260506213505 14 151 3.2 9.7 0.00 0.00 0.00 79 1021.9
20260506213012 14 162 1.6 6.4 0.00 0.00 0.00 81 1021.9
20260506212504 14 137 1.6 6.4 0.00 0.00 0.00 80 1021.9
20260506212009 14 120 0.0 6.4 0.00 0.00 0.00 82 1021.9
20260506211515 13 41 1.6 6.4 0.00 0.00 0.00 81 1022.0
20260506211006 13 129 3.2 6.4 0.00 0.00 0.00 81 1022.0
20260506210507 13 153 0.0 8.0 0.00 0.00 0.00 83 1021.9
20260506210036 13 196 1.6 12.9 0.00 0.00 0.00 83 1021.9
20260506205503 13 160 6.4 12.9 0.00 0.00 0.00 83 1021.9
20260506205009 13 153 3.2 12.9 0.00 0.00 0.00 83 1022.0
20260506204518 13 140 4.8 12.9 0.00 0.00 0.00 83 1021.9
20260506203509 13 128 6.4 12.9 0.00 0.00 0.00 83 1021.8
20260506200004 12 134 3.2 9.7 0.00 0.00 0.00 87 1021.9
20260506195504 12 137 3.2 9.7 0.00 0.00 0.00 87 1021.9
20260506195005 12 153 1.6 8.0 0.00 0.00 0.00 87 1021.8
20260506194506 12 139 3.2 12.9 0.00 0.00 0.00 87 1021.7
20260506194002 12 165 1.6 12.9 0.00 0.00 0.00 87 1021.7
20260506193504 12 138 3.2 11.3 0.00 0.00 0.00 87 1021.6
20260506193003 12 239 1.6 8.0 0.00 0.00 0.00 87 1021.6
20260506192502 12 93 3.2 11.3 0.00 0.00 0.00 86 1021.7
20260506192002 12 76 3.2 11.3 0.00 0.00 0.00 86 1021.6
20260506191510 13 123 1.6 6.4 0.00 0.00 0.00 87 1021.6
20260506191004 13 129 0.0 6.4 0.00 0.00 0.00 87 1021.6
20260506190507 12 51 0.0 11.3 0.00 0.00 0.00 87 1021.6
20260506190005 12 158 3.2 11.3 0.00 0.00 0.00 86 1021.5
20260506185505 12 156 3.2 12.9 0.00 0.00 0.00 87 1021.5
20260506185003 12 144 6.4 12.9 0.00 0.00 0.00 87 1021.4
20260506184505 12 178 3.2 9.7 0.00 0.00 0.00 87 1021.5
20260506184003 12 153 1.6 9.7 0.00 0.00 0.00 89 1021.5
20260506183503 12 148 4.8 8.0 0.00 0.00 0.00 88 1021.4
20260506183004 12 150 3.2 8.0 0.00 0.00 0.00 87 1021.3
20260506182506 12 140 1.6 11.3 0.00 0.00 0.00 88 1021.3
20260506182003 12 153 4.8 12.9 0.00 0.00 0.00 87 1021.2
20260506181505 12 144 8.0 12.9 0.00 0.00 0.00 87 1021.2
20260506181003 12 129 3.2 12.9 0.00 0.00 0.00 88 1021.2
20260506180503 12 205 4.8 12.9 0.00 0.00 0.00 88 1021.2
20260506180003 12 205 1.6 8.0 0.00 0.00 0.00 89 1021.1
20260506175502 12 129 1.6 8.0 0.00 0.00 0.00 89 1021.1
20260506175003 12 153 0.0 8.0 0.00 0.00 0.00 88 1021.3
20260506174503 12 205 1.6 4.8 0.00 0.00 0.00 89 1021.1
20260506174004 12 221 0.0 8.0 0.00 0.00 0.00 89 1020.9
20260506173506 12 51 1.6 11.3 0.00 0.00 0.00 89 1020.8
20260506173004 12 165 4.8 11.3 0.00 0.00 0.00 88 1020.7
20260506172512 12 153 3.2 9.7 0.00 0.00 0.00 89 1020.8
20260506172012 12 212 3.2 8.0 0.00 0.00 0.00 90 1020.9
20260506171532 12 243 1.6 6.4 0.00 0.00 0.00 90 1021.0
20260506171013 12 165 1.6 6.4 0.00 0.00 0.00 90 1021.0
20260506170509 12 162 0.0 6.4 0.00 0.00 0.00 90 1021.0
20260506170030 12 229 1.6 4.8 0.00 0.00 0.00 90 1020.9
20260506165507 12 178 1.6 4.8 0.00 0.00 0.00 91 1020.8
20260506165009 12 93 0.0 3.2 0.00 0.00 0.00 91 1020.8
20260506164542 12 162 0.0 6.4 0.00 0.00 0.00 91 1021.0